Regional Weather Roundup
Issued by NWS

Home | Current Version | Previous Version | Graphics & Text | Print | Product List | Glossary On
Versions: 1 2 3 4 5 6 7 8 9 10 11 12 13 14 15 16 17 18 19 20 21 22 23 24 25 26 27 28 29 30 31 32 33 34 35 36 37 38 39 40 41 42 43 44 45 46 47 48 49 50
000
ASUS44 KMEG 242000
RWRTN
TENNESSEE HOURLY STATE WEATHER ROUNDUP
NATIONAL WEATHER SERVICE MEMPHIS TN
300 PM CDT FRI APR 24 2015

TNZ002-004-019-021-049-052-054-088>092-242100-
WEST TENNESSEE

CITY           SKY/WX    TMP DP  RH WIND       PRES   REMARKS
MEMPHIS INTL   LGT RAIN  58  51  78 E6        29.97F
NWS MEMPHIS      N/A     58 N/A N/A MISG        N/A
JACKSON        LGT RAIN  60  53  77 CALM      29.99S
DYERSBURG      CLOUDY    55  39  54 NE6       29.99F
PARIS          CLOUDY    57  43  58 SE6       29.99F
SAVANNAH       PTSUNNY   70  32  24 CALM      29.96F
$$

TNZ008-025-027-028-033-062-065-066-242100-
NORTH MIDDLE TENNESSEE

CITY           SKY/WX    TMP DP  RH WIND       PRES   REMARKS
NASHVILLE      CLOUDY    66  29  24 VRB6      30.01F
CLARKSVILLE    CLOUDY    64  36  35 E9        29.99F
CROSSVILLE     CLOUDY    65  19  17 CALM      30.02F
$$

TNZ061-075-076-078-094-096-097-242100-
SOUTH MIDDLE TENNESSEE

CITY           SKY/WX    TMP DP  RH WIND       PRES   REMARKS
WINCHESTER     SUNNY     70  36  28 N3        29.99F
SHELBYVILLE    SUNNY     66  37  34 E5        30.01F
$$

TNZ017-018-042-046-047-242100-
NORTHEAST TENNESSEE

CITY           SKY/WX    TMP DP  RH WIND       PRES   REMARKS
TRI CITIES     PTSUNNY   64  21  19 NW3       30.03F
ELIZABETHTON   CLEAR     63  27  25 W12       30.02F
$$

TNZ012-013-036-069-073-074-242100-
CENTRAL EAST TENNESSEE

CITY           SKY/WX    TMP DP  RH WIND       PRES   REMARKS
KNOXVILLE      CLOUDY    66  26  22 VRB5      30.00F
OAK RIDGE      MOSUNNY   67  27  22 VRB5      30.02F
GATLINBURG     CLEAR     64  19  17 NW3       30.00F
$$

TNZ083-085-099-242100-
SOUTHEAST TENNESSEE

CITY           SKY/WX    TMP DP  RH WIND       PRES   REMARKS
CHATTANOOGA    PTSUNNY   69  32  25 VRB3      30.01F
$$

SKY/WX REPORTED AS FAIR MEANS FEW OR NO CLOUDS BELOW
12 THOUSAND FEET.



USA.gov is the U.S. government's official web portal to all federal, state and local government web resources and services.